GEESAT-3 08 (61018 NORAD) Tracking and Keplerian Element Data

This shows tracking and keplerian element data for the satellite.

Feedback or suggestion? Click here.




ElementValue
Catalog61018
NameGEESAT-3 08
Epoch Orbit552
Epoch Day286.8322469
Epoch Year2024
RAAN64.7734
Inclination50.0048
Eccentricity0.0015631
Argument of Perigee283.7544
Mean Anonmoly76.1658
Mean Motion14.92314636
Decay Rate0.00012241
L11 61018U 24159H 24286.83224690 .00012241 00000+0 12038-2 0 9998
L22 61018 50.0048 64.7734 0015631 283.7544 76.1658 14.92314636 5529



Live tracking and technical data element details for GEESAT-3 08 (NORAD 61018). GEESAT-3 08 can be tracked NOW for your location showing map with azimuth and elevation plus other details from your city location.







IsCatalogInMostPopularTable: catalog: 61018, numindb: 6
Update: records affected: 1



GetName: 61018 GEESAT-3 08

Hit Count: updated at: Wed, 04 Dec 2024 19:39:50 GMT